Preview of NWS' New Version of Forecast
This preview is not operational and should not be used for support decisions.
Latest weather observations around

Bishop, Bishop Airport (KBIH)

Using English Units (Switch to International System of Units)
Date/ Time (PDT) Wind (mph) Vis. (mi) Weather Sky Cond. Temp (°F) Rel. Humidity Wind Chill (°F) Heat Index (°F) Pressure Precip. (in)
Air Dwpt 6 hour Altimeter (inHg) Sea level (inHg) 1 hr 3 hr 6 hr
Max Min
Jun 18 02:56 N 11 10 Clear CLR 58 37     46%     29.97 29.84      
Jun 18 01:56 NNW 11 10 Clear CLR 60 37     42%     29.97 29.83      
Jun 18 00:56 N 16 10 Clear CLR 62 37     39%     29.95 29.81      
Jun 17 23:56 N 15 10 Clear CLR 62 36     38%     29.93 29.8      
Jun 17 22:56 N 16 10 Clear CLR 64 34     33%     29.91 29.78      
Jun 17 21:56 NNE 10 10 Clear CLR 65 32     29%     29.88 29.75      
Jun 17 20:56 N 9 10 Clear CLR 70 27     20%       29.7      
Jun 17 19:56 NNW 13 10 Clear CLR 74 20     13%   72 29.8 29.66      
Jun 17 18:56 N 15 10 Clear CLR 79 12     8%   77 29.77 29.63      
Jun 17 17:56 NNW 18 10 Clear CLR 83 5     5%   79 29.74 29.6      
Jun 17 16:56 SW 5 10 Clear CLR 84        %     29.73 29.57      
Jun 17 15:56 3 10 Clear CLR 83 14     7%   80   29.58      
Jun 17 14:56 6 10 Clear CLR 83 19     9%   80   29.57      
Jun 17 13:56 N 3 10 Clear CLR 82 23     11%   79   29.57      
Jun 17 12:56   10 Clear CLR 78 23     13%   76   29.57      
Jun 17 11:56 7 10 Clear CLR 77 28     16%   75   29.58      
Jun 17 10:56 S 3 10 Clear CLR 73 31     21%   71   29.6      
Jun 17 09:56 NNE 8 10 Clear   72 35     26%   70 29.76 29.62      
Jun 17 08:56 Calm 10 Clear CLR 67 34     29%     29.76 29.61      
Jun 17 07:56 S 6 10 Clear CLR 65 36     34%     29.74 29.59      
Jun 17 06:56 SSW 8 10 Clear CLR 62 36     38%     29.74 29.58      
Jun 17 05:56 S 10 10 Clear CLR 60 34     37%       29.57      
Jun 17 04:56 SSW 10 10 Clear CLR 63 33     33%       29.55      
Jun 17 03:56 SW 7 10 Clear CLR 61 35     38%     29.7 29.54      
Jun 17 02:56 WSW 7 10 Clear CLR 62 33     34%     29.68 29.51      
Jun 17 01:56 SSW 7 10 Clear CLR 63 35     35%       29.51      
Jun 17 00:56 W 6 10 Clear CLR 64 33     31%       29.51      
Jun 16 23:56 SW 7 10 Clear CLR 67 32     27%       29.5      
Jun 16 22:56 WSW 5 10 Clear CLR 67 32     27%       29.49      
Jun 16 21:56 N 10 10 Clear CLR 74 31     20%   72   29.47      
Jun 16 20:56 N 8 10 Clear CLR 77 25     14%   75   29.41      
Jun 16 19:56 6 10 Clear CLR 84 14     7%   80   29.38      
Jun 16 18:56 W 11 10 Clear CLR 89 14     6%   84   29.39      
Jun 16 17:56 SE 16 10 Clear   91 21     8%   86   29.39      
Jun 16 16:56 SSE 22 10 Clear and Windy CLR 91 21     8%   86   29.41      
Jun 16 15:56 SSE 20 10 Clear and Windy CLR 91 21     8%   86   29.42      
Jun 16 14:56 SSE 18 10 Clear CLR 92 19     7%   86   29.44      
Jun 16 13:56 SSE 13 10 Clear CLR 90 18     7%   85   29.46      
Jun 16 12:56 S 16 10 Clear CLR 87 18     8%   83   29.49      
Jun 16 11:56 SSE 10 10 Clear CLR 85 19     9%   81   29.51      
Jun 16 10:56   10 Clear CLR 80 22     12%   78   29.55      
Jun 16 09:56 Calm 10 Clear CLR 77 23     13%   75   29.57      
Jun 16 08:56 3 10 Clear CLR 73 24     16%   71   29.59      
Jun 16 07:56 Calm 10 Clear CLR 70 27     20%       29.58      
Jun 16 06:56 Calm 10 Clear CLR 58 32     37%       29.59      
Jun 16 05:56 WNW 6 10 Clear CLR 52 30     43%       29.59      
Jun 16 04:56 N 5 10 Clear CLR 49 32     52% 47     29.59      
Jun 16 03:56 NW 6 10 Clear CLR 53 31     43%       29.57      
Jun 16 02:56 SW 6 10 Clear CLR 57 30     36%       29.56      
Jun 16 01:56 Calm 10 Clear CLR 61 28     28%       29.56      
Jun 16 00:56 Calm 10 Clear CLR 62 28     27%       29.55      
Jun 15 23:56 NW 8 9 Clear CLR 66 28     24%       29.55      
Jun 15 22:56 NNW 9 10 Clear CLR 70 26     19%       29.54      
Jun 15 21:56 N 8 10 Clear CLR 71 27     19%   69   29.53      
Jun 15 20:56 N 10 10 Clear CLR 79 23     13%   77   29.5      
Jun 15 19:56 W 8 10 Clear CLR 86 16     7%   82   29.47      
Jun 15 18:56 W 13 10 Clear CLR 90        %       29.47      
Jun 15 17:56 W 17 10 Clear CLR 93        %       29.47      
Jun 15 16:56 SW 7 10 Clear CLR 94        %       29.48      
Jun 15 16:42 SSW 9 10 Clear CLR 95 13     5%   88          
Jun 15 15:56 SSE 14 10 Clear CLR 96 16     5%   89   29.48      
Jun 15 14:56 SE 17 10 Clear CLR 95 14     5%   88   29.5      
Jun 15 13:56 SSE 14 10 Clear CLR 94        %       29.53      
Jun 15 12:56 S 11 10 Clear CLR 91 19     7%   86   29.55      
Jun 15 11:56 S 20 10 Clear and Windy CLR 89 23     9%   84   29.58      
Jun 15 10:56 SSE 15 10 Clear CLR 86 27     12%   82   29.6      
Jun 15 09:56 S 7 10 Clear CLR 82 30     15%   80   29.62      
Jun 15 08:56 Calm 10 Clear CLR 75 32     21%   73   29.65      
Jun 15 07:56 Calm 10 Clear CLR 69 36     30%       29.64      
Jun 15 06:56 E 3 10 Clear CLR 60 40     47%       29.65      
Jun 15 05:56 WNW 5 10 Clear CLR 54 37     53%       29.65      
Jun 15 03:56 WNW 6 10 Clear CLR 57 37     47%       29.63      
Jun 15 02:56 NNW 6 10 Clear CLR 59 37     44%       29.63      
May 15 06:56 NNE 3 10 Clear CLR 49 40     71% 48   30 29.92      
May 15 04:56 NNW 6 10 Clear CLR 44 39     82% 41   29.98 29.9      
May 14 14:56 S 17 10 Mostly Cloudy FEW046 SCT090 BKN120 69 37     31%       29.84 0    
May 14 10:56 Calm 10 Partly Cloudy SCT080 70 34     26%       29.87      
May 13 09:56 N 13 10 Clear CLR 66 35     32%     29.96 29.86      
May 13 05:56 NNW 6 10 Mostly Cloudy BKN095 47 38     71% 44     29.88      
May 12 16:56 NNW 22 10 Cloudy and Windy OVC090 62 36     38%     29.85 29.78      
May 11 21:56 NE 8 10 Mostly Cloudy BKN100 52 29     41%       29.76      
May 11 17:56   10 Mostly Clear FEW120 60 26     27%     29.74 29.65      
May 11 11:56 N 26 10 Clear and Breezy CLR 79 20     11%   77   29.49      
Jun 12 00:56   10 Clear CLR 47 20     34%     29.84 29.73      
Jun 11 19:56   10 Clear CLR 56 8     14%     29.77 29.67      
Jun 11 18:56   10 Clear CLR 59 7     12%     29.78 29.69      
Jun 11 13:56   10 Clear CLR 75 13     9%   73 29.65 29.54      
Notice The following observation data may not be complete
Jun 11 06:56 3 10 Clear CLR   32      %     29.69 29.55      
Notice The following observation data may not be complete
Jun 11 05:56 NNE 5 10 Clear CLR   28      %       29.56      
Jun 10 23:56 W 7 10 Clear   62 28     27%       29.56      
Jun 10 19:56   10 Clear CLR 74 23     15%   72 29.68 29.54      
Jun 10 16:56 W 11 10 Clear CLR 88        %     29.65 29.51      
Jun 10 08:56 3 10 Clear CLR 70 31     23%       29.63      
Jun 10 04:56 WNW 6 10 Clear CLR 51 32     48%     29.75 29.61      
Jun 10 02:56 NNW 6 10 Clear CLR 55 32     41%     29.77 29.63      
Jun 09 22:56 N 9 10 Clear CLR 67 31     26%     29.78 29.64      
Jun 09 15:56   10 Clear CLR 91 25     9%   86 29.68 29.53      
Jun 09 10:56 SSE 6 10 Clear CLR 79 34     20%   77 29.82 29.68      
Jun 09 09:56 NW 5 10 Clear CLR 77 37     24%   76 29.84 29.7      
Jun 09 00:56 N 14 10 Clear   62 36     38%     29.88 29.73      
Notice The following observation data may not be complete
Jun 08 08:56   10 Clear CLR          %              
Jun 07 14:56 SSE 21 10 Clear and Windy CLR 96        %     29.85 29.7      
Jun 06 10:56 N 5 10 Clear CLR 87 34     15%   84   29.82      
Jun 05 21:56 N 5 10 Clear CLR 75 33     22%   73   29.76      
Jun 05 18:56 S 10 10 Clear CLR 90 30     12%   86   29.71      
Jun 05 17:56 SSW 7 10 Clear CLR 92 27     10%   87   29.71      
Jun 05 12:56 WNW 6 10 Clear CLR 88 31     13%   84   29.78